Weather Roundup
Issued by NWS

Home | Current Version | Previous Version | Text Only | Print | Product List | Glossary On
Versions: 1 2 3 4 5 6 7 8 9 10 11 12 13 14 15 16 17 18 19 20 21 22 23 24 25 26 27 28 29 30 31 32 33 34 35 36 37 38 39 40 41 42 43 44 45 46 47 48 49 50
000
NZUS93 KARX 231410
HRRWXR

CURRENT HOURLY OBSERVATIONS ACROSS
MUCH OF THE UPPER MISSISSIPPI VALLEY
NATIONAL WEATHER SERVICE LA CROSSE WI
900 AM CDT THU OCT 23 2014


...SOUTHEAST MINNESOTA...


CITY           SKY/WX    TMP DP  RH WIND       PRES   REMARKS
ROCHESTER      CLOUDY    48  46  93 S12       30.04R FOG
ROCHESTER/MAYO CLOUDY    48  47  95 S5        30.03R
WINONA         LGT RAIN  48  46  93 SE3       30.05R
AUSTIN         FOG       48  46  93 S7        30.02R VSB 1
ALBERT LEA     CLOUDY    50  50 100 S5        30.02R FOG
DODGE CENTER   DRIZZLE   48  48 100 SW6       30.02S
PRESTON        RAIN      46  45  95 S10       30.04R
OWATONNA       CLOUDY    50  48  93 S5        30.02R FOG
FARIBAULT      CLOUDY    52  50  93 S5        30.02R FOG
$$

...ELSEWHERE IN MINNESOTA...


CITY           SKY/WX    TMP DP  RH WIND       PRES   REMARKS
MINNEAPOLIS    CLOUDY    53  51  93 VRB5      30.00S
INTNL FALLS    CLOUDY    50  48  93 S6        29.89S
DULUTH         FOG       48  46  93 SW6       29.96S VSB 1/4
RED WING       NOT AVBL
REDWOOD FALLS  SUNNY     47  46  97 SW9       30.00R
MANKATO        CLOUDY    54  48  82 S5        30.01R
WORTHINGTON    MOSUNNY   48  48 100 SW6       30.03R
FAIRMONT       CLOUDY    52  46  82 W6        30.02R VSB 1/2
$$

...SOUTHWEST WISCONSIN...


CITY           SKY/WX    TMP DP  RH WIND       PRES   REMARKS
LA CROSSE      CLOUDY    49  46  90 S10       30.06R
PRAIRIE DU CHI RAIN      47  42  82 SE5       30.10R
BOSCOBEL       RAIN      48  41  76 VRB3      30.10S
LONE ROCK      CLOUDY    50  37  61 E8        30.12S
PLATTEVILLE    CLOUDY    46  39  77 SE10      30.11F
FORT MC COY    DRIZZLE   47  44  90 CALM      30.08R
CAMP DOUGLAS   LGT RAIN  48  43  81 S7        30.08S FOG
VIROQUA        CLOUDY    44  44  97 SE6       30.07S
WIS DELLS      CLOUDY    46  35  67 S9        30.10S
$$

...ELSEWHERE IN WISCONSIN...


CITY           SKY/WX    TMP DP  RH WIND       PRES   REMARKS
MILWAUKEE      PTSUNNY   43  38  82 S6        30.20F
MADISON        PTSUNNY   45  37  73 S12       30.15F
GREEN BAY      MOSUNNY   44  38  79 S8        30.16S
EAU CLAIRE     LGT RAIN  48  46  93 S8        30.02S
BLACK RVR FLS  DRIZZLE   47  47 100 CALM      30.06S
MEDFORD        LGT RAIN  41  39  94 SE8       30.05F
WAUSAU         CLOUDY    42  39  89 SE7       30.07F
WIS RAPIDS     NOT AVBL
MARSHFIELD     LGT RAIN  44  40  85 S8        30.06F FOG
RICE LAKE      CLOUDY    47  45  93 SE5       30.03S FOG
$$

...NORTHEAST IOWA...


CITY           SKY/WX    TMP DP  RH WIND       PRES   REMARKS
DECORAH        RAIN      46  46 100 S9        30.06R
MASON CITY     FOG       49  49 100 S8        30.04R VSB 1
CHARLES CITY   CLOUDY    48  46  93 S7        30.05R FOG
OELWEIN        LGT RAIN  48  45  87 S9        30.07R
$$

...ELSEWHERE IN IOWA...


CITY           SKY/WX    TMP DP  RH WIND       PRES   REMARKS
DES MOINES     CLOUDY    55  52  89 SW7       30.05R
IOWA CITY      LGT RAIN  47  43  86 SE9       30.10S
FORT DODGE     CLOUDY    55  52  88 SW5       30.04R
$$

...NORTHERN ILLINOIS...


CITY           SKY/WX    TMP DP  RH WIND       PRES   REMARKS
CHICAGO-OHARE  PTSUNNY   43  39  86 S7        30.22R
CHICAGO-MIDWAY PTSUNNY   45  40  82 S7        30.23R
MOLINE         CLOUDY    48  40  73 S10       30.13F
ROCKFORD       CLOUDY    44  38  79 S9        30.21R
PEORIA         PTSUNNY   47  40  76 S9        30.20S
$$

NOTE: "FAIR" INDICATES FEW OR NO CLOUDS BELOW 12,000 FEET WITH NO
SIGNIFICANT WEATHER AND/OR OBSTRUCTIONS TO VISIBILITY. WIND
SPEEDS ARE IN MILES-PER-HOUR.



USA.gov is the U.S. government's official web portal to all federal, state and local government web resources and services.